Location: Acton
(51.4942°N, 0.2232°W)
Time: 04:35:27
(UTC+00:00)

Daily predictions for brighter satellites

Satellite Brightness Start Highest point End
(mag) Time Altitude Azimuth Time Altitude Azimuth Time Altitude Azimuth
CENTAUR R/B 4.4 01:07:28 32° NE 01:07:28 32° NE 01:12:34 10° E
NOSS 3-2 (C) 4.5 02:20:06 53° E 02:20:06 53° E 02:26:30 10° ESE
Cosmos 2333 Rocket 4.0 02:21:06 26° E 02:21:06 26° E 02:24:34 10° NE
ATLAS 5 CENTAUR R/B 4.4 02:25:27 29° NNE 02:25:27 29° NNE 02:32:24 10° ENE
SL-16 R/B 3.9 02:35:37 26° NNE 02:35:37 26° NNE 02:38:10 10° NNE
Cosmos 2219 Rocket 3.7 02:37:21 32° E 02:37:21 32° E 02:41:11 10° NE
USA 234 3.6 02:35:40 10° ESE 02:40:51 58° E 02:40:51 58° E
ARIANE 5 R/B 4.3 02:41:21 10° NNE 02:43:30 26° NNE 02:43:30 26° NNE
Resurs 1-4 Rocket 4.2 02:42:13 10° N 02:43:44 19° N 02:43:44 19° N
COSMOS 2455 3.6 02:49:04 49° NE 02:49:04 49° NE 02:53:28 10° NE
ATLAS 3B R/B 3.0 02:47:49 61° NE 02:47:49 61° NE 02:54:16 10° ESE
Cosmos 2237 Rocket 4.3 02:47:34 17° SE 02:49:33 20° E 02:53:36 10° NE
CENTAUR R/B 3.1 02:54:44 54° NNW 02:56:48 76° NE 03:05:25 10° SE
Cosmos 2322 Rocket 3.7 03:03:58 28° N 03:03:58 28° N 03:07:00 10° NNE
Cosmos 2360 Rocket 3.2 03:11:46 39° N 03:11:46 39° N 03:15:30 10° NNE
COSMOS 2428 3.1 03:11:04 59° E 03:11:04 59° E 03:16:05 10° NE
ADEOS II 3.3 03:06:07 10° NNE 03:09:03 34° N 03:09:03 34° N
Cosmos 1980 Rocket 4.2 03:17:49 16° NNW 03:17:49 16° NNW 03:20:37 10° NNE
ATLAS 2AS CENTAUR R/B 3.5 03:16:30 40° S 03:19:11 55° ESE 03:26:57 10° NE
Cosmos 1943 Rocket 4.4 03:20:58 10° NNW 03:25:14 21° NE 03:29:27 10° E
CZ-2D R/B 4.2 03:28:11 10° N 03:29:32 16° NNW 03:29:32 16° NNW
Cosmos 1709 Rocket 3.8 03:34:58 78° WSW 03:35:13 79° W 03:41:38 10° N
IDEFIX/ARIANE 42P 3.2 03:33:51 10° NNE 03:39:02 54° E 03:41:20 31° SSE
Cosmos 1025 Rocket 3.8 03:40:24 48° NE 03:40:24 48° NE 03:43:42 10° NNE
Cosmos 2251 Rocket 4.0 03:41:47 50° NNW 03:41:47 50° NNW 03:46:07 10° NNE
PSLV R/B 4.3 03:37:23 10° NNE 03:41:31 48° E 03:41:40 48° ESE
Meteor 2-16 Rocket 4.3 03:41:51 68° WNW 03:41:51 68° WNW 03:47:41 10° N
USA 267 3.4 03:42:43 10° ENE 03:49:15 69° SE 03:51:17 46° SSW
Cosmos 2278 Rocket 3.1 03:52:09 34° S 03:52:09 34° S 03:55:22 10° SSE
NOSS 2-2 (E) 4.1 03:52:07 50° NNE 03:52:07 50° NNE 03:55:46 10° NE
Cosmos 2297 4.3 03:47:09 10° NNW 03:52:51 58° NE 03:58:29 10° SE
Lacrosse 4 Rocket 4.0 03:56:14 10° N 03:56:14 10° N 03:56:28 10° N
Cosmos 407 Rocket 3.8 03:59:53 31° S 04:02:12 63° ESE 04:07:17 10° NNE
Cosmos 2333 Rocket 2.2 04:03:09 58° W 04:03:42 61° NW 04:09:23 10° NNE
NOSS 3-2 (C) 4.2 04:07:39 41° W 04:09:18 46° WSW 04:17:07 10° S
Cosmos 1536 Rocket 4.1 04:12:09 44° NNW 04:12:09 44° NNW 04:15:26 10° N
Cosmos 2074 Rocket 3.9 04:07:19 10° S 04:13:34 86° E 04:19:49 10° N
SL-16 R/B 4.0 04:17:29 17° NW 04:18:07 17° NNW 04:21:45 10° NNE
CBERS 1 LM4 rocket 4.5 04:13:30 10° N 04:18:31 58° WNW 04:19:19 51° WSW
Spot 2 3.8 04:15:37 10° N 04:19:35 67° WNW 04:19:35 67° WNW
Cosmos 2219 Rocket 2.4 04:19:06 45° W 04:19:57 48° NW 04:25:24 10° NNE
Cosmos 2181 Rocket 4.4 04:18:47 10° NNW 04:24:34 38° W 04:25:00 38° W
ARIANE 5 R/B 4.0 04:21:16 10° N 04:23:50 20° NW 04:23:50 20° NW
Cosmos 2344 4.4 04:16:03 10° NW 04:25:21 84° NE 04:38:19 10° SE
USA 234 3.4 04:19:08 10° SE 04:25:29 51° SW 04:28:13 32° W
Meteor 1-21 4.2 04:26:52 32° SW 04:29:22 57° WNW 04:34:58 10° N
NOSS 3-4 (A) 3.5 04:25:47 26° SW 04:29:25 81° SE 04:35:56 10° NE
NOSS 3-4 (C) 3.5 04:25:49 26° SW 04:29:30 81° SE 04:36:02 10° NE
NOSS 2-2 (D) 3.8 04:29:54 44° NW 04:30:15 45° NW 04:34:41 10° NE
ADEOS 3.5 04:26:35 10° N 04:31:46 64° WNW 04:34:54 24° SW
USA 32 4.0 04:29:17 21° SSW 04:32:46 60° W 04:37:59 10° N
Cosmos 2237 Rocket 2.1 04:29:27 25° SW 04:32:56 82° WNW 04:38:42 10° NNE
COSMOS 2455 3.7 04:32:14 29° WNW 04:33:54 34° NW 04:39:23 10° NNE
H-2A R/B 2.4 04:31:19 10° NNE 04:35:29 80° WNW 04:38:53 16° SSW
Aureole 1 Rocket 4.1 04:35:19 34° WNW 04:35:48 35° WNW 04:39:56 10° N
BREEZE-M DEB (TANK) 2.3 04:35:30 42° SW 04:36:32 62° S 04:39:01 10° E
Cosmos 614 Rocket 3.9 04:34:49 25° SW 04:37:54 72° WNW 04:43:08 10° NNE
ATLAS 3B R/B 3.0 04:35:09 28° WNW 04:38:03 41° WSW 04:44:23 10° S
Cosmos 1606 Rocket 3.4 04:34:15 10° NNW 04:38:34 68° W 04:42:50 10° S
Cosmos 1140 Rocket 3.4 04:35:03 12° SSW 04:39:55 86° ESE 04:45:07 10° NNE
Cosmos 1954 Rocket 4.3 04:35:03 10° SSW 04:40:14 67° ESE 04:45:25 10° NNE
COSMOS 2441 4.3 04:36:38 10° NNE 04:41:34 76° WNW 04:46:27 10° SSW
Cosmos 1908 4.3 04:38:09 10° N 04:41:53 46° ENE 04:45:34 10° SSE
Cosmos 2369 Rocket 3.2 04:38:31 10° NNW 04:43:55 45° NE 04:49:16 10° ESE
Meteor 1-4 Rocket 2.3 04:41:56 20° SSW 04:44:12 85° WNW 04:47:41 10° NNE
PAYLOAD A 3.8 04:40:37 10° NNE 04:45:28 81° WNW 04:50:29 10° SSW
Cosmos 1726 2.2 04:42:32 10° N 04:46:13 77° E 04:49:54 10° SSE
Cosmos 1953 2.5 04:42:56 10° NNW 04:46:48 45° W 04:50:37 10° SSW
CENTAUR R/B 3.5 04:41:59 18° WNW 04:47:19 40° WSW 04:55:08 10° S
Cosmos 2322 Rocket 4.1 04:45:47 12° NW 04:47:29 14° NNW 04:50:24 10° N
Cosmos 468 Rocket 4.3 04:42:31 10° NNW 04:47:42 66° ENE 04:52:47 10° SE
GP-B 3.4 04:44:03 10° SSE 04:48:27 69° E 04:52:54 10° N
Gblst 52 Del rocket 4.3 04:46:13 30° W 04:48:50 58° SSW 04:54:33 10° SE
ADEOS II 3.8 04:47:12 10° NNW 04:49:58 16° NW 04:49:58 16° NW
Cosmos 1980 3.7 04:47:11 22° SW 04:50:47 61° NW 04:56:25 10° NNE
Cosmos 389 Rocket 2.6 04:50:46 43° WSW 04:51:19 47° WNW 04:54:42 10° N
CZ-4B R/B 2.8 04:49:41 10° NNE 04:53:45 83° ESE 04:57:35 10° SSW
COSMOS 2428 3.5 04:53:06 25° W 04:55:07 32° NW 05:00:12 10° NNE
Cosmos 2360 Rocket 3.8 04:53:32 16° NW 04:55:12 18° NNW 04:58:59 10° NNE
BREEZE-M R/B 4.3 04:52:15 26° W 04:55:30 79° S 05:07:00 10° E
Meteor 1-31 Rocket 2.6 04:53:12 10° NNE 04:57:02 86° WNW 05:00:50 10° SSW
Cosmos 1707 3.0 04:56:42 23° SW 04:58:48 43° WNW 05:02:35 10° N
Cosmos 44 Rocket 3.4 04:57:39 20° NW 05:00:42 51° WSW 05:05:14 10° SSE
Cosmos 1356 3.6 04:58:17 10° NNW 05:01:37 46° W 05:04:56 10° S
ERBS 2.7 05:04:03 31° WNW 05:05:17 47° NNW 05:08:36 10° NE
Cosmos 1943 Rocket 2.5 05:04:18 10° NNW 05:10:00 73° ENE 05:15:40 10° SE
ATLAS 2AS CENTAUR R/B 3.2 05:03:59 17° WSW 05:10:20 59° NW 05:18:12 10° NE
Okean 1-7 Rocket 3.5 05:06:12 10° SSW 05:10:39 73° W 05:15:11 10° N
Cosmos 2228 3.4 05:06:49 10° NNW 05:10:46 38° W 05:14:41 10° SSW
CZ-2C R/B 2.5 05:05:53 10° N 05:11:02 61° WNW 05:16:06 10° SSW
Cosmos 1674 3.0 05:08:34 10° S 05:12:15 68° E 05:15:58 10° NNE
Cosmos 1484 Rocket 3.1 05:09:05 10° NNE 05:12:52 67° ESE 05:16:42 10° S
MSX 4.1 05:07:33 10° N 05:13:01 47° WNW 05:18:28 10° SW
COSMO-SKYMED 1 2.5 05:08:58 10° S 05:13:19 79° WSW 05:17:41 10° NNW
Cosmos 2208 Rocket 4.4 05:08:19 10° NNW 05:13:33 67° ENE 05:18:46 10° SE
IDEFIX/ARIANE 42P 3.5 05:13:55 10° N 05:18:21 28° WNW 05:22:08 13° WSW
Cosmos 1726 Rocket 4.1 05:14:35 10° NNW 05:18:30 34° W 05:22:24 10° SSW
Cosmos 2154 Rocket 4.1 05:14:05 10° SSW 05:20:08 55° WNW 05:26:16 10° N
COBE Rocket 4.0 05:15:50 10° S 05:20:53 66° W 05:26:04 10° NNW
NOSS 0 Rocket 4.4 05:17:23 14° WSW 05:22:15 41° NW 05:28:07 10° NNE
Helios 1A Rocket 3.8 05:19:12 10° NNE 05:23:18 54° E 05:27:22 10° S
RESURS DK-1 2.3 05:21:37 10° SW 05:25:44 67° NW 05:29:53 10° NNE
Cosmos 1763 Rocket 3.4 05:21:37 10° NNW 05:26:50 81° WSW 05:31:56 10° SSE
SL-16 R/B 2.2 05:22:01 10° SSW 05:27:41 79° WNW 05:33:25 10° NNE
Cosmos 540 Rocket 4.2 05:23:30 10° NNW 05:28:37 57° ENE 05:33:41 10° SE
Meteor 1-24 Rocket 4.2 05:23:26 10° S 05:29:12 70° E 05:35:10 10° NNE
USA 267 3.4 05:25:50 10° ENE 05:32:18 65° NNW 05:38:38 11° W
Cosmos 1727 Rocket 4.3 05:27:08 10° N 05:33:24 74° E 05:39:39 10° SSE
Cosmos 1626 4.0 05:31:06 10° SSE 05:34:31 35° E 05:37:57 10° NNE
Cosmos 1300 3.3 05:30:57 10° N 05:34:45 60° ENE 05:38:31 10° SSE
Cosmos 676 Rocket 4.3 05:31:01 10° SW 05:36:05 47° WNW 05:41:09 10° NNE
Cosmos 2297 4.5 05:31:46 10° NW 05:36:44 31° WSW 05:41:39 10° SSW
Cosmos 1602 Rocket 3.9 05:36:03 10° S 05:40:20 70° E 05:44:40 10° NNE
MOS 1-B 4.3 05:34:40 10° NNE 05:40:31 80° WNW 05:46:20 10° SSW
Okean O Rocket 1.9 05:37:37 10° NNE 05:42:03 74° ESE 05:46:25 10° S
Cosmos 2058 Rocket 3.8 05:39:14 10° NNW 05:43:06 30° W 05:46:57 10° SSW
Iridium 51 4.2 05:40:17 10° NNW 05:44:01 53° W 05:47:29 10° SSW
SJ-12 3.9 05:42:14 10° N 05:46:20 73° WNW 05:50:26 10° SSW
Cosmos 1814 Rocket 4.1 05:41:45 10° NNW 05:47:09 89° ENE 05:52:31 10° SSE
Cosmos 2341 Rocket 4.1 05:42:34 10° SSW 05:48:41 56° WNW 05:54:48 10° N
Cosmos 2333 Rocket 3.7 05:45:12 10° WNW 05:49:11 19° NNW 05:53:13 10° NNE
SL-14 R/B 3.7 05:46:35 10° S 05:50:29 66° E 05:54:21 10° NNE
Meteor PRIRODA 4.4 05:48:44 10° N 05:52:08 33° WNW 05:55:31 10° SW
Cosmos 192 4.5 05:55:03 10° NNW 05:59:54 55° WSW 06:04:43 10° S
Cosmos 1943 4.4 05:55:13 10° S 06:00:40 49° ESE 06:06:09 10° NE
KORONAS-FOTON 4.2 05:57:14 10° SW 06:00:49 40° WNW 06:04:26 10° N
SKYMED 2 4.5 05:57:49 10° SSW 06:01:35 28° W 06:05:22 10° NW
SL-16 R/B 4.5 06:04:04 10° N 06:04:52 10° N 06:05:40 10° N
Cosmos 1437 Rocket 3.6 06:01:56 10° SW 06:05:11 26° WNW 06:08:27 10° N
Cosmos 2219 Rocket 3.9 06:01:57 10° WNW 06:05:21 16° NNW 06:08:46 10° N
Cosmos 1959 Rocket 4.5 06:02:19 10° SSW 06:08:24 65° WNW 06:14:35 10° N
